Location: Newark
(49.4569°N, 2.2158°E)
Time: 14:35:28
(UTC+00:00)

ISS - Visible Passes

Search period start: 20 January 2021 00:00
Search period end: 30 January 2021 00:00
Orbit: 418 x 419 km, 51.6° (Epoch: 20 January)

Date Brightness Start Highest point End Pass type
(mag) Time Alt. Az. Time Alt. Az. Time Alt. Az.
20 Jan -1.8 17:41:42 10° S 17:43:51 16° SE 17:45:00 14° ESE visible
20 Jan -1.2 19:16:51 10° WSW 19:17:58 19° WSW 19:17:58 19° WSW visible
21 Jan -3.3 18:29:14 10° SW 18:32:21 49° SSE 18:32:21 49° SSE visible
22 Jan -2.8 17:41:45 10° SSW 17:44:50 34° SSE 17:46:40 19° E visible
22 Jan -1.4 19:18:07 10° W 19:19:37 24° W 19:19:37 24° W visible
23 Jan -3.9 18:30:20 10° WSW 18:33:42 90° W 18:33:53 80° ENE visible
24 Jan -3.7 17:42:36 10° WSW 17:45:57 69° SSE 17:48:06 20° ENE visible
24 Jan -1.4 19:19:30 10° W 19:21:03 24° WNW 19:21:03 24° WNW visible
25 Jan -3.7 18:31:38 10° W 18:35:00 63° N 18:35:14 60° NNE visible
26 Jan -3.7 17:43:47 10° W 17:47:10 74° NNW 17:49:24 19° ENE visible
26 Jan -1.5 19:20:49 10° WNW 19:22:21 24° WNW 19:22:21 24° WNW visible
27 Jan -3.6 18:32:57 10° W 18:36:17 57° N 18:36:30 55° NNE visible
28 Jan -3.5 17:45:05 10° W 17:48:25 58° N 17:50:40 19° ENE visible
28 Jan -1.6 19:22:01 10° WNW 19:23:37 26° WNW 19:23:37 26° WNW visible
29 Jan -3.8 18:34:10 10° WNW 18:37:32 67° N 18:37:47 63° NE visible
